Hourly Data Report for May 08, 2003

TORONTO CITY
ONTARIO

43°40'00.000" N
79°24'00.000" W
112.50 m
6158355
71508
XTO

Download Data

Hourly Data (May 2003)
Hourly Data Report for May 8, 2003
TIME
LST
Temp Definition
°C
Dew Point Definition
°C
Rel Hum Definition
%
Precip. Amount Definition
mm

Wind Dir Definition
10's deg

Wind Spd Definition
km/h
Visibility Definition
km
Stn Press Definition
kPa
Hmdx Definition


Wind Chill Definition


Weather Definition


00:00 10.9 9.4 90   LegendMM LegendMM LegendMM 100.02     LegendNANA
01:00 10.9 9.4 90   LegendMM LegendMM LegendMM 100.00     LegendNANA
02:00 10.6 9.3 92   LegendMM LegendMM LegendMM 99.96     LegendNANA
03:00 10.7 9.4 92   LegendMM LegendMM LegendMM 99.93     LegendNANA
04:00 10.5 9.0 90   LegendMM LegendMM LegendMM 99.96     LegendNANA
05:00 10.1 8.6 90   LegendMM LegendMM LegendMM 99.99     LegendNANA
06:00 10.3 8.3 87   LegendMM LegendMM LegendMM 100.06     LegendNANA
07:00 10.9 8.5 85   LegendMM LegendMM LegendMM 100.06     LegendNANA
08:00 12.9 9.2 78   LegendMM LegendMM LegendMM 100.05     LegendNANA
09:00 13.9 9.2 73   LegendMM LegendMM LegendMM 100.04     LegendNANA
10:00 15.8 8.3 61   LegendMM LegendMM LegendMM 100.04     LegendNANA
11:00
12:00 16.5 9.9 65   LegendMM LegendMM LegendMM 100.10     LegendNANA
13:00 17.0 9.3 60   LegendMM LegendMM LegendMM 100.12     LegendNANA
14:00 19.1 9.7 54   LegendMM LegendMM LegendMM 100.08     LegendNANA
15:00 17.3 8.2 55   LegendMM LegendMM LegendMM 100.11     LegendNANA
16:00 16.7 7.3 54   LegendMM LegendMM LegendMM 100.07     LegendNANA
17:00 16.1 7.7 57   LegendMM LegendMM LegendMM 100.11     LegendNANA
18:00 16.5 6.9 53   LegendMM LegendMM LegendMM 100.14     LegendNANA
19:00 16.0 6.7 54   LegendMM LegendMM LegendMM 100.22     LegendNANA
20:00 15.7 -0.2 34   LegendMM LegendMM LegendMM 100.30     LegendNANA
21:00 14.5 -1.4 33   LegendMM LegendMM LegendMM 100.34     LegendNANA
22:00 13.8 -1.1 36   LegendMM LegendMM LegendMM 100.38     LegendNANA
23:00 13.1 -1.9 35   LegendMM LegendMM LegendMM 100.38     LegendNANA

Notes on Data Quality.

Legend

  • E = Estimated
  • M = Missing
  • NA = Not Available*
  • [empty] = Indicates an unobserved value
Date modified: